User: anonymous   Login
Location: Unspecified
(0.0000°N, 0.0000°E)
Time: 07:11:12
(UTC+00:00)
Language:

FORMOSAT 3C - Orbit

View from above orbital plane
View from above orbital plane
View from above satellite
View from above satellite

Ground track
Ground track

The orbit data is extracted from the following two-line orbital elements,

1 29049U 06011C   17178.58617375 +.00000054 +00000-0 +37627-4 0  9996
2 29049 072.0198 243.6218 0033678 128.4208 231.9961 14.28572434584515
Epoch (UTC): 27 June 2017 14:04:05
Eccentricity: 0.0033678
inclination: 72.0198°
perigee height: 772 km
apogee height: 820 km
right ascension of ascending node: 243.6218°
argument of perigee: 128.4208°
revolutions per day: 14.28572434
mean anomaly at epoch: 231.9961°
orbit number at epoch: 58451

The dashed part of the orbit path shows where the satellite is in the earth's shadow,  

DLR